TimeCST,TemperatureF,Dew PointF,Humidity,Sea Level PressureIn,VisibilityMPH,Wind Direction,Wind SpeedMPH,Gust SpeedMPH,PrecipitationIn,Events,Conditions,WindDirDegrees,DateUTC
12:53 AM,21.9,18.0,85,29.91,8.0,South,10.4,-,N/A,,Overcast,180,2013-02-05 06:53:00
1:53 AM,21.9,18.0,85,29.90,8.0,South,8.1,-,N/A,,Overcast,180,2013-02-05 07:53:00
2:53 AM,21.9,18.0,85,29.87,8.0,South,6.9,-,N/A,,Overcast,190,2013-02-05 08:53:00
3:53 AM,21.0,18.0,88,29.84,8.0,South,8.1,-,N/A,,Clear,180,2013-02-05 09:53:00
4:53 AM,21.0,18.0,88,29.82,8.0,South,8.1,-,N/A,,Clear,190,2013-02-05 10:53:00
5:53 AM,21.0,18.0,88,29.82,8.0,SSW,6.9,-,N/A,,Clear,200,2013-02-05 11:53:00
6:53 AM,19.9,18.0,92,29.82,8.0,SSW,4.6,-,N/A,,Mostly Cloudy,200,2013-02-05 12:53:00
7:53 AM,25.0,21.9,88,29.83,5.0,WSW,5.8,-,N/A,,Overcast,250,2013-02-05 13:53:00
9:53 AM,34.0,27.0,75,29.85,9.0,WNW,12.7,-,N/A,,Clear,290,2013-02-05 15:53:00
10:53 AM,37.0,28.9,73,29.89,10.0,NW,17.3,25.3,N/A,,Clear,310,2013-02-05 16:53:00
11:09 AM,37.4,30.2,75,29.88,10.0,NW,25.3,32.2,N/A,,Mostly Cloudy,320,2013-02-05 17:09:00
11:53 AM,37.0,30.0,76,29.92,10.0,NW,15.0,-,N/A,,Mostly Cloudy,310,2013-02-05 17:53:00
12:09 PM,37.4,30.2,75,29.89,10.0,NW,17.3,-,N/A,,Scattered Clouds,310,2013-02-05 18:09:00
12:53 PM,39.0,30.9,73,29.93,10.0,NW,15.0,23.0,N/A,,Mostly Cloudy,320,2013-02-05 18:53:00
1:31 PM,37.4,30.2,75,29.92,10.0,NNW,15.0,-,N/A,,Mostly Cloudy,340,2013-02-05 19:31:00
1:53 PM,37.9,30.9,76,29.95,8.0,NNW,10.4,-,N/A,,Overcast,340,2013-02-05 19:53:00
2:04 PM,39.2,32.0,75,29.93,10.0,NNW,12.7,-,N/A,,Overcast,340,2013-02-05 20:04:00
2:53 PM,37.9,30.9,76,29.98,10.0,NNW,16.1,-,N/A,,Overcast,330,2013-02-05 20:53:00
3:53 PM,37.0,30.0,76,30.00,10.0,NW,9.2,-,N/A,,Overcast,320,2013-02-05 21:53:00
4:53 PM,37.0,28.9,73,30.01,10.0,NW,6.9,-,N/A,,Partly Cloudy,320,2013-02-05 22:53:00
5:53 PM,34.0,28.0,79,30.03,10.0,Calm,Calm,-,N/A,,Clear,0,2013-02-05 23:53:00
6:53 PM,30.0,27.0,88,30.05,10.0,North,5.8,-,N/A,,Clear,350,2013-02-06 00:53:00
7:53 PM,32.0,28.0,85,30.08,9.0,North,9.2,-,N/A,,Clear,350,2013-02-06 01:53:00
8:53 PM,30.0,27.0,88,30.09,7.0,NNW,8.1,-,N/A,,Mostly Cloudy,340,2013-02-06 02:53:00
9:53 PM,28.0,26.1,92,30.11,7.0,North,8.1,-,N/A,,Partly Cloudy,10,2013-02-06 03:53:00
10:53 PM,27.0,24.1,89,30.12,6.0,Calm,Calm,-,N/A,,Clear,0,2013-02-06 04:53:00
11:53 PM,26.1,23.0,88,30.13,7.0,North,3.5,-,N/A,,Clear,360,2013-02-06 05:53:00